Home > Time Zones > World Clock > Weather > Iran > Kerman > Past weeks

Flag for Iran Weather past 2 weeks in Kerman, Iran

Now
61 °F

Clear.


Feels Like: 61 °F
Forecast: 53 / 88 °F
Wind: 5 mph from East

Location: Kerman Airport

Current Time: Aug 23, 2014 at 6:44:34 AM

Latest Report: Aug 23, 2014 at 5:30 AM


Visibility: 10 mi

Pressure: 30.07 "Hg

Humidity: 16%

Dew point: 14 °F

Location of KermanLocation

Historic Weather in Kerman — Graph

°F

Kerman temperature yesterday

Maximum temperature yesterday: 91 °F (at 4:30 PM)
Minimum temperature yesterday: 59 °F (at 6:30 AM)
Average temperature yesterday: 81 °F

Past Weeks' High & Low Weather Summary

 TemperatureHumidityPressure
High97 °F (Aug 8, 11:30 AM)37% (Aug 16, 6:30 AM)30.21 "Hg (Aug 16, 6:30 AM)
Low55 °F (Aug 9, 6:30 AM)0% (Aug 9, 3:30 PM)29.89 "Hg (Aug 8, 2:30 PM)
Average82 °F10%30.04 "Hg
* Reported Aug 8 5:30 AM — Aug 23 5:30 AM, Kerman, Weather by CustomWeather, © 2014

Note: Actual official high and low records may vary slightly from our data, if they occured in-between our weather recording intervals... More about our weather records

Advertising

Kerman weather history for previous 24 hours

 ConditionsComfort  
Time TempWeatherWind HumidityBarometerVisibility
5:30 AM
Aug 23
61 °FClear.5 mph16%30.07 "Hg10 mi
4:30 AM59 °FClear.7 mph17%30.07 "Hg10 mi
3:30 AM61 °FClear.5 mph16%30.07 "Hg10 mi
2:30 AM68 °FClear.5 mph11%30.07 "Hg10 mi
1:30 AM66 °FClear.5 mph12%30.07 "Hg10 mi
12:30 AM73 °FClear.7 mph9%30.07 "Hg10 mi
11:30 PM
Aug 22
73 °FClear.5 mph9%30.07 "Hg10 mi
10:30 PM77 °FClear.7 mph8%30.07 "Hg10 mi
9:30 PM81 °FClear.12 mph7%30.04 "Hg10 mi
8:30 PM82 °FSunny.14 mph6%30.01 "Hg10 mi
7:30 PM84 °FPassing clouds.12 mph5%30.01 "HgN/A
6:30 PM90 °FPassing clouds.12 mph4%29.98 "HgN/A
5:30 PM91 °FPassing clouds.12 mph3%29.98 "HgN/A
5:00 PM91 °FPassing clouds.12 mph3%29.98 "HgN/A
4:30 PM91 °FPassing clouds.14 mph3%29.98 "HgN/A
3:30 PM90 °FPassing clouds.12 mph3%30.01 "HgN/A
2:30 PM90 °FPassing clouds.9 mph3%30.01 "HgN/A
2:00 PM90 °FPassing clouds.9 mph6%30.04 "HgN/A
1:30 PM90 °FPassing clouds.9 mph6%30.04 "HgN/A
1:00 PM90 °FPassing clouds.7 mph6%30.04 "HgN/A
12:30 PM88 °FSunny.7 mph7%30.07 "Hg10 mi
12:00 PM84 °FSunny.5 mph9%30.07 "Hg10 mi
11:30 AM84 °FSunny.5 mph9%30.07 "Hg10 mi
11:00 AM84 °FSunny.5 mph8%30.09 "Hg10 mi
10:30 AM84 °FSunny.5 mph8%30.09 "Hg10 mi
10:00 AM84 °FSunny.No wind9%30.09 "Hg10 mi
9:30 AM82 °FSunny.5 mph9%30.09 "Hg10 mi
9:00 AM81 °FSunny.5 mph12%30.09 "Hg10 mi
8:30 AM73 °FSunny.5 mph16%30.09 "Hg10 mi
8:00 AM64 °FSunny.7 mph21%30.07 "Hg10 mi
7:20 AM64 °FPassing clouds.7 mph21%30.07 "HgN/A
6:30 AM59 °FPassing clouds.7 mph21%30.07 "HgN/A
Weather by CustomWeather, © 2014

See weather overviewHow to use our weather pages